Location: Sungai Apap
(2.6167°N, 113.3833°E)
Time: 15:05:43
(UTC+00:00)

Cosmos 2278 Rocket - Pass Details

Date: 25 May 2024
Orbit: 840 x 846 km, 71.0° (Epoch: 12 June)

Event Time Altitude Azimuth Distance (km) Brightness Sun altitude
Rises 12:28:48 0° 336° (NNW) 3,384 6.0 -27.9°
Reaches altitude 10° 12:31:16 10° 332° (NNW) 2,450 5.2 -28.5°
Maximum altitude 12:36:46 56° 255° (WSW) 991 2.6 -29.7°
Enters shadow 12:37:26 53° 227° (SW) 1,029 2.6 -29.9°
